STARLINK-1231, 45212

Orbit data source: Space-Track

STARLINK-1231, 45212 is a payload satellite owned by SpaceX/Seattle (US) in LEO that was launched on Mon, 17 Feb 2020 UTC via an FALCON 9 launch vehicle from the Air Force Eastern Test Range (AFETR). Payload-class satellites include a variety of spacecraft equipped with specific instruments for various scientific and technological missions. These include communications satellites like Starlink; space stations such as the ISS; scientific satellites like the Hubble; Earth observation satellites from companies like Planet Labs, Umbra, and HawkEye 360; GPS; miniature CubeSats for education and research; and military/defense satellites.

Loading next visibility...
Identifier
45212, 2020-012AL
Orbit
LEO
Country
Flag of USUS
Related business
Manufacturer
SpaceX/Seattle
Mission
Partially operational Commercial Communications
Bus & Motor
STARLINK, Unknown motor
Mass
260 kg wet, ~248 kg dry
Launch date (UTC)
2020-02-17 (7 years ago)
Launch vehicle
FALCON 9
Launch site
Air Force Eastern Test Range (AFETR)
Object type
Payload
Rocket body
Debris
Shape & HBR
Box + 1 Pan, 10.1 m
Radar Cross Section
13.562 m², Large (>1 m²)

Expand to show TLE details & history
Last TLE update: 1 day ago

TLE from 1 day ago
0 STARLINK-1231
1 45212U 20012AL  26253.28703509  .00033948  00000-0  10380-2 0  9992
2 45212  53.0352 239.0911 0003964  23.9284 336.1900 15.33569721363443
Epoch: 2026-09-10T06:53Z
TLE epoch observation values (Epoch: 2026-09-10T06:53:19.831Z)
Latitude
-0.00005°
Longitude
146.43152°
Altitude
463.578 km
Speed
7.637 km/s
True Right ascension
15h 56m 21s
True Declination
0° 00' 00"
Sunlit
Object was in daylight at epoch
Visualization orbit readout
Latitude
Unknown
Longitude
Unknown
Altitude
Unknown
Speed
Unknown
Apparent Right ascension
Unknown
Apparent Declination
Unknown
Sunlit
N/A
Visualization observer readout
Local Sidereal Time
00:12:39
Azimuth
Unknown
Elevation
Unknown
Doppler factor
Unknown
Orbital elements
Apogee altitude
468.162 km
Perigee altitude
462.736 km
Semi-major axis
6,843.586 km
Eccentricity
0.0004
Inclination
53.0352°
RAAN
239.0911°
Arg. of periapsis
23.9284°
True anomaly
336.17165°
Mean anomaly
336.19°
Eccentric anomaly
336.18083°
Mean motion
3.8337 °/min
Orbital period
93.9 mins
BSTAR
0.001038
Loading maneuver chart data...
Computing Atmospheric mass density...

Documentation

Showing up to 5 results
|